Lincoln, NM

3:16 AM MDT on August 24, 2016 (GMT -0600)
Sierra Blanca Regional

Weather History for KSRR - October, 2012

Change the Weather History Date:

Thursday, October 4, 2012

  Actual Average Record
Temperature  
Mean Temperature 60 °F -  
Max Temperature 71 °F 68 °F 80 °F (2007)
Min Temperature 50 °F 45 °F 41 °F (2014)
Degree Days  
Heating Degree Days 4    
Growing Degree Days 10 (Base 50)    
Moisture  
Dew Point 30 °F    
Average Humidity 32    
Maximum Humidity 58    
Minimum Humidity 19    
Precipitation  
Precipitation 0.00 in - - ()
Sea Level Pressure  
Sea Level Pressure 30.32 in    
Wind  
Wind Speed 9 mph (SSE)    
Max Wind Speed 18 mph    
Max Gust Speed 23 mph    
Visibility 10 miles    
Events      
Averages and records for this station are not official NWS values.
T = Trace of Precipitation, MM = Missing Value Source: NWS Daily Summary

Daily Weather History Graph

Daily Weather History Graph

Search for Another Location

Airport or City:

Trip Planner

Search our weather history database for the weather conditions in past years. The results will help you decide how hot, cold, wet, or windy it might be!

Date:

Astronomy

Oct. 04, 2012 Rise Set
Actual Time 6:58 AM MDT 6:41 PM MDT
Civil Twilight 6:34 AM MDT 7:06 PM MDT
Nautical Twilight 6:05 AM MDT 7:35 PM MDT
Astronomical Twilight 5:36 AM MDT 8:04 PM MDT
Moon 9:33 PM MDT (10/4) 11:05 AM MDT (10/4)
Length of Visible Light 12h 32m
Length of Day
11h 42m
Waning Gibbous, 81% of the Moon is Illuminated
Oct 4
Waning Gibbous
Oct 8
Last Quarter
Oct 15
New
Oct 21
First Quarter
Oct 29
Full

Hourly Weather History & Observations

Time (MDT) Temp. Dew Point Humidity Pressure Visibility Wind Dir Wind Speed Gust Speed Precip Events Conditions
12:15 AM 62.6 °F 21.2 °F 20% 30.27 in 10.0 mi WNW 8.1 mph - N/A   Clear
12:35 AM 62.6 °F 21.2 °F 20% 30.27 in 10.0 mi WNW 9.2 mph - N/A   Clear
12:55 AM 60.8 °F 21.2 °F 22% 30.27 in 10.0 mi West 10.4 mph - N/A   Clear
1:15 AM 62.6 °F 21.2 °F 20% 30.28 in 10.0 mi West 9.2 mph - N/A   Clear
1:35 AM 60.8 °F 19.4 °F 20% 30.28 in 10.0 mi WNW 9.2 mph - N/A   Clear
1:55 AM 62.6 °F 19.4 °F 19% 30.29 in 10.0 mi WNW 10.4 mph - N/A   Clear
2:15 AM 60.8 °F 21.2 °F 22% 30.29 in 10.0 mi West 10.4 mph - N/A   Clear
2:35 AM 62.6 °F 19.4 °F 19% 30.29 in 10.0 mi WNW 11.5 mph - N/A   Clear
2:55 AM 60.8 °F 19.4 °F 20% 30.30 in 10.0 mi WNW 10.4 mph 17.3 mph N/A   Clear
3:15 AM 62.6 °F 19.4 °F 19% 30.30 in 10.0 mi WNW 12.7 mph - N/A   Clear
3:35 AM 62.6 °F 19.4 °F 19% 30.30 in 10.0 mi WNW 13.8 mph - N/A   Clear
3:55 AM 62.6 °F 21.2 °F 20% 30.30 in 10.0 mi NW 12.7 mph 21.9 mph N/A   Clear
4:15 AM 62.6 °F 21.2 °F 20% 30.30 in 10.0 mi NW 13.8 mph - N/A   Clear
4:55 AM 60.8 °F 21.2 °F 22% 30.32 in 10.0 mi NW 10.4 mph 16.1 mph N/A   Clear
5:15 AM 60.8 °F 21.2 °F 22% 30.31 in 10.0 mi WNW 11.5 mph - N/A   Clear
5:35 AM 60.8 °F 23.0 °F 23% 30.32 in 10.0 mi WNW 9.2 mph - N/A   Clear
5:55 AM 59.0 °F 23.0 °F 25% 30.32 in 10.0 mi NW 9.2 mph - N/A   Clear
6:15 AM 59.0 °F 23.0 °F 25% 30.32 in 10.0 mi North 8.1 mph - N/A   Clear
6:35 AM 57.2 °F 23.0 °F 27% 30.32 in 10.0 mi West 8.1 mph - N/A   Clear
6:55 AM 53.6 °F 24.8 °F 33% 30.34 in 10.0 mi East 6.9 mph - N/A   Clear
7:15 AM 55.4 °F 23.0 °F 29% 30.35 in 10.0 mi ESE 4.6 mph - N/A   Clear
7:35 AM 57.2 °F 24.8 °F 29% 30.35 in 10.0 mi SW 5.8 mph - N/A   Clear
7:55 AM 57.2 °F 26.6 °F 31% 30.37 in 10.0 mi SSE 6.9 mph - N/A   Clear
8:15 AM 53.6 °F 30.2 °F 41% 30.37 in 10.0 mi SSE 13.8 mph 18.4 mph N/A   Clear
8:35 AM 53.6 °F 32.0 °F 44% 30.38 in 10.0 mi SSE 10.4 mph - N/A   Clear
8:55 AM 53.6 °F 32.0 °F 44% 30.39 in 10.0 mi SSE 6.9 mph - N/A   Clear
9:15 AM 55.4 °F 32.0 °F 41% 30.39 in 10.0 mi SE 6.9 mph - N/A   Clear
9:35 AM 55.4 °F 32.0 °F 41% 30.39 in 10.0 mi SE 5.8 mph - N/A   Clear
9:55 AM 57.2 °F 32.0 °F 38% 30.40 in 10.0 mi SE 5.8 mph - N/A   Clear
10:15 AM 60.8 °F 32.0 °F 34% 30.40 in 10.0 mi SE 5.8 mph - N/A   Clear
10:35 AM 62.6 °F 32.0 °F 32% 30.40 in 10.0 mi SSE 6.9 mph - N/A   Clear
10:55 AM 62.6 °F 32.0 °F 32% 30.40 in 10.0 mi SE 4.6 mph - N/A   Clear
11:15 AM 66.2 °F 32.0 °F 28% 30.40 in 10.0 mi North 3.5 mph - N/A   Clear
11:35 AM 68.0 °F 32.0 °F 26% 30.39 in 10.0 mi ENE 4.6 mph - N/A   Clear
11:55 AM 69.8 °F 32.0 °F 25% 30.39 in 10.0 mi NE 5.8 mph - N/A   Clear
12:15 PM 71.6 °F 32.0 °F 23% 30.38 in 10.0 mi SE 12.7 mph - N/A   Clear
12:35 PM 68.0 °F 35.6 °F 30% 30.38 in 10.0 mi SE 9.2 mph - N/A   Clear
12:55 PM 69.8 °F 35.6 °F 28% 30.37 in 10.0 mi SSE 11.5 mph - N/A   Clear
1:15 PM 69.8 °F 33.8 °F 27% 30.37 in 10.0 mi SE 11.5 mph - N/A   Clear
1:35 PM 69.8 °F 35.6 °F 28% 30.35 in 10.0 mi SE 13.8 mph - N/A   Clear
1:55 PM 69.8 °F 35.6 °F 28% 30.35 in 10.0 mi SE 12.7 mph - N/A   Clear
2:15 PM 69.8 °F 35.6 °F 28% 30.34 in 10.0 mi SE 13.8 mph 19.6 mph N/A   Clear
2:35 PM 71.6 °F 35.6 °F 27% 30.33 in 10.0 mi SSE 15.0 mph 23.0 mph N/A   Clear
2:55 PM 69.8 °F 35.6 °F 28% 30.32 in 10.0 mi SE 15.0 mph - N/A   Clear
3:15 PM 69.8 °F 35.6 °F 28% 30.32 in 10.0 mi SE 17.3 mph 21.9 mph N/A   Clear
3:35 PM 69.8 °F 35.6 °F 28% 30.31 in 10.0 mi SE 18.4 mph 23.0 mph N/A   Clear
4:35 PM 68.0 °F 35.6 °F 30% 30.30 in 10.0 mi SE 13.8 mph - N/A   Clear
4:55 PM 68.0 °F 35.6 °F 30% 30.29 in 10.0 mi SE 13.8 mph - N/A   Clear
5:15 PM 68.0 °F 35.6 °F 30% 30.29 in 10.0 mi SE 15.0 mph - N/A   Clear
5:35 PM 68.0 °F 35.6 °F 30% 30.29 in 10.0 mi SSE 12.7 mph - N/A   Clear
5:55 PM 66.2 °F 35.6 °F 32% 30.29 in 10.0 mi SE 10.4 mph - N/A   Clear
6:15 PM 64.4 °F 35.6 °F 34% 30.29 in 10.0 mi SE 10.4 mph - N/A   Clear
6:35 PM 62.6 °F 35.6 °F 37% 30.29 in 10.0 mi SE 12.7 mph - N/A   Clear
6:55 PM 59.0 °F 35.6 °F 42% 30.29 in 10.0 mi SSE 11.5 mph - N/A   Clear
7:15 PM 57.2 °F 35.6 °F 44% 30.30 in 10.0 mi SSE 13.8 mph - N/A   Clear
7:35 PM 57.2 °F 35.6 °F 44% 30.30 in 10.0 mi SSE 10.4 mph - N/A   Clear
7:55 PM 55.4 °F 35.6 °F 47% 30.30 in 10.0 mi SSE 10.4 mph - N/A   Clear
8:15 PM 55.4 °F 35.6 °F 47% 30.30 in 10.0 mi SE 5.8 mph - N/A   Clear
8:35 PM 53.6 °F 35.6 °F 51% 30.29 in 10.0 mi South 6.9 mph - N/A   Clear
8:55 PM 53.6 °F 35.6 °F 51% 30.29 in 10.0 mi South 6.9 mph - N/A   Clear
9:15 PM 53.6 °F 35.6 °F 51% 30.29 in 10.0 mi South 6.9 mph - N/A   Clear
9:35 PM 53.6 °F 35.6 °F 51% 30.30 in 10.0 mi South 5.8 mph - N/A   Clear
9:55 PM 53.6 °F 35.6 °F 51% 30.29 in 10.0 mi Calm Calm - N/A   Clear
10:15 PM 53.6 °F 35.6 °F 51% 30.29 in 10.0 mi Calm Calm - N/A   Clear
10:35 PM 53.6 °F 35.6 °F 51% 30.29 in 10.0 mi Calm Calm - N/A   Clear
10:55 PM 55.4 °F 35.6 °F 47% 30.29 in 10.0 mi Calm Calm - N/A   Clear
11:15 PM 50.0 °F 35.6 °F 58% 30.28 in 10.0 mi SW 6.9 mph - N/A   Clear
11:35 PM 55.4 °F 28.4 °F 36% 30.28 in 10.0 mi West 9.2 mph 19.6 mph N/A   Clear
11:55 PM 57.2 °F 32.0 °F 38% 30.28 in 10.0 mi North 3.5 mph 18.4 mph N/A   Clear